Flag for Germany Weather past 2 weeks in Nürburg, Rhineland-Palatinate, Germany

Now
27 °F

Low clouds.


Feels Like: 19 °F
Forecast: 15 / 24 °F
Wind: 8 mph from Northeast

Location: Nuerburg-Barweiler

Current Time: Dec 27, 2014 at 9:57:13 PM

Latest Report: Dec 27, 2014 at 9:00 PM


Visibility: 9 mi

Pressure: 29.54 "Hg

Humidity: 95%

Dew point: 26 °F

Location of NürburgLocation

Historic Weather in Nürburg — Graph

°F

Nürburg temperature yesterday

Maximum temperature yesterday: 35 °F (at 2:00 PM)
Minimum temperature yesterday: 31 °F (at 6:00 AM)
Average temperature yesterday: 33 °F

Past Weeks' High & Low Weather Summary

 TemperatureHumidityPressure
High51 °F (Dec 18, 6:00 PM)100% (Dec 13, 11:00 PM)30.47 "Hg (Dec 13, 11:00 PM)
Low27 °F (Dec 27, 9:00 PM)79% (Dec 25, 1:00 AM)29.35 "Hg (Dec 27, 2:00 PM)
Average38 °F94%30.06 "Hg
* Reported Dec 12 9:00 PM — Dec 27 9:00 PM, Nürburg, Weather by CustomWeather, © 2014

Note: Actual official high and low records may vary slightly from our data, if they occured in-between our weather recording intervals... More about our weather records

Advertising

Nürburg weather history for previous 24 hours

 ConditionsComfort  
Time TempWeatherWind HumidityBarometerVisibility
9:00 PM
Dec 27
27 °FLow clouds.8 mph95%29.54 "Hg9 mi
8:00 PM27 °FLow clouds.9 mph96%29.50 "Hg9 mi
7:00 PM29 °FSnow flurries. Low clouds.6 mph97%29.44 "Hg4 mi
6:00 PM30 °FSnow flurries. Low clouds.6 mph97%29.41 "Hg3 mi
5:00 PM30 °FLow clouds.7 mph97%29.38 "Hg12 mi
3:00 PM30 °FLow clouds.6 mph96%29.35 "Hg6 mi
2:00 PM31 °FLight snow. Low clouds.6 mph96%29.35 "Hg6 mi
1:00 PM31 °FLight snow. Low clouds.7 mph96%29.38 "Hg4 mi
12:00 PM30 °FLight snow. Low clouds.8 mph94%29.38 "Hg6 mi
11:00 AM30 °FLight snow. Low clouds.8 mph95%29.41 "Hg2 mi
9:00 AM30 °FSnow. Low clouds.9 mph96%29.44 "Hg1 mi
8:00 AM30 °FSnow. Low clouds.9 mph96%29.50 "Hg1 mi
7:00 AM30 °FSnow. Low clouds.9 mph97%29.56 "Hg1 mi
6:00 AM30 °FSnow. Low clouds.10 mph96%29.64 "Hg1 mi
5:00 AM31 °FSnow. Low clouds.8 mph98%29.73 "Hg1 mi
3:00 AM32 °FLight rain. Low clouds.7 mph94%29.91 "Hg1 mi
2:00 AM32 °FLow clouds.7 mph92%29.97 "Hg9 mi
1:00 AM32 °FLow clouds.5 mph94%30.05 "Hg6 mi
12:00 AM32 °FOvercast.5 mph93%30.11 "Hg6 mi
11:00 PM
Dec 26
32 °FLow clouds.3 mph95%30.17 "Hg4 mi
9:00 PM32 °FOvercast.2 mph94%30.27 "Hg5 mi
Weather by CustomWeather, © 2014

See weather overviewHow to use our weather pages